Regional Weather Roundup
Issued by NWS

Home | Current Version | Previous Version | Graphics & Text | Print | Product List | Glossary On
Versions: 1 2 3 4 5 6 7 8 9 10 11 12 13 14 15 16 17 18 19 20 21 22 23 24 25 26 27 28 29 30 31 32 33 34 35 36 37 38 39 40 41 42 43 44 45 46 47 48 49 50
000
ASUS43 KIND 281959
RWRIN

WEATHER ROUNDUP FOR INDIANA
NATIONAL WEATHER SERVICE INDIANAPOLIS IN
400 PM EDT MON JUL 28 2014

NOTE: "FAIR" INDICATES FEW OR NO CLOUDS BELOW 12,000 FEET WITH NO
SIGNIFICANT WEATHER AND/OR OBSTRUCTIONS TO VISIBILITY.

* - STATION DOES NOT REPORT WEATHER SUCH AS PRECIPITATION OR FOG.

+ - STATION NOT QUALITY CONTROLLED BY THE NATIONAL WEATHER SERVICE.
    USE DATA WITH CAUTION...ESPECIALLY DEWPOINT AND RELATIVE
    HUMIDITY OBSERVATIONS.

INZ001>003-010>013-019-020-282100-
NORTHWEST INDIANA

CITY           SKY/WX    TMP DP  RH WIND       PRES   REMARKS
GARY /AIRPORT/ MOSUNNY   66  48  52 N23G35    30.10S
KNOX *+        CLOUDY    63  49  61 NW15G21   30.06S
MONTICELLO +   MOSUNNY   67  55  64 N13G18    30.05S
RENSSELAER +   SUNNY     66  48  52 NW15G26   30.08R
VALPARAISO     PTSUNNY   63  50  62 NW12G26   30.08S

$$

LMZ046-743>745-282100-
SOUTHERN LAKE MICHIGAN

STATION/POSITION TIME  TEMP WIND        PRES
                       AIR  DIR/SP/G
                 (UTC) (F)  (DEG/KT/KT) (MB)
MICHIGAN CITY    1900   59  330/ 20/ 23   N/A

$$

INZ004-005-014>016-021>024-282100-
NORTH CENTRAL INDIANA

CITY           SKY/WX    TMP DP  RH WIND       PRES   REMARKS
GOSHEN         PTSUNNY   65  52  62 NW16G24   30.02R
SOUTH BEND     PTSUNNY   62  47  57 N17       30.05R
WARSAW +       CLOUDY    61  52  72 NW15      30.04R

$$

INZ006>009-017-018-025>027-282100-
NORTHEAST INDIANA

CITY           SKY/WX    TMP DP  RH WIND       PRES   REMARKS
ANGOLA *+      PTSUNNY   72  64  78 NW13      29.97S
AUBURN +       MOSUNNY   72  52  49 W13G20    29.98S
FORT WAYNE     MOSUNNY   70  55  59 NW13      29.99R

$$

INZ028-029-035-036-043>045-051>053-282100-
WEST CENTRAL INDIANA

CITY           SKY/WX    TMP DP  RH WIND       PRES   REMARKS
GREENCASTLE +  PTSUNNY   70  54  56 NW8       30.05R
LAFAYETTE      PTSUNNY   69  54  58 N17       30.06R
TERRE HAUTE    MOSUNNY   74  55  51 N12G21    30.04S

$$

INZ030>032-037>040-046>048-054>057-064-065-282100-
CENTRAL INDIANA

CITY           SKY/WX    TMP DP  RH WIND       PRES   REMARKS
ANDERSON       MOSUNNY   72  55  56 NW12G17   30.02R
COLUMBUS       PTSUNNY   72  63  73 NW7       30.02S
INDIANAPOLIS   PTSUNNY   71  54  54 N16G25    30.02R
-EAGLE CREEK   PTSUNNY   70  54  56 N13       30.02R
KOKOMO *+      CLOUDY    66  54  63 NW17      30.04R
MT COMFORT *+  MOSUNNY   73  63  68 N14G20    30.02S
SHELBYVILLE    PTSUNNY   74  59  59 NW13G20   30.00S
ZIONSVILLE +   PTSUNNY   68  53  58 NW14      30.04R

$$

INZ033-034-041-042-049-050-058-059-282100-
EAST CENTRAL INDIANA

CITY           SKY/WX    TMP DP  RH WIND       PRES   REMARKS
MUNCIE         MOSUNNY   70  56  61 NW17      30.00R

$$

INZ060-061-067>069-081>083-085>088-282100-
SOUTHWEST INDIANA

CITY           SKY/WX    TMP DP  RH WIND       PRES   REMARKS
EVANSVILLE     PTSUNNY   79  59  50 N8        30.03F

$$

INZ062-063-066-070>080-084-089>092-282100-
SOUTH CENTRAL AND SOUTHEAST INDIANA

CITY           SKY/WX    TMP DP  RH WIND       PRES   REMARKS
BLOOMINGTON    PTSUNNY   74  59  59 NW8G18    30.02S
SEYMOUR +      CLOUDY    68  45  42 NW9       30.01

$$




USA.gov is the U.S. government's official web portal to all federal, state and local government web resources and services.